Погода Дно

Погода Дно : погода сейчас, прогноз погоды и архив. Всё, что Вы хотите узнать о погоде Дно!

Поиск расширенной информации на нашем сайте:

Другие новости

Новости СМИ2

Главная страница сайта

Новости сайта

03.07.2017

Напоминаем, что на нашем специализированном сайте Метеоцентр.Азия вы можете получить высокодетализированные автоматические прогнозы погоды по пунктам России, СНГ и мира в авиационном формате (включающие направление и скорость ветра, видимость, явления погоды, количество и форму облачности, нижнюю и верхнюю границу облачности).

Рекомендуем: интим магазин в йошкар оле

Погода Дно - сегодня

Время (UTC), дата Ветер
(°,м/с) 
Видим.   Явления Облачность Т
(°С)
Тd
(°С)
f(%) Тe
(°С)
Pmin
(гПа)
dP
(гПа)
Po
(мм)
O2
(г/м3)
Тmin Tmax R s Состояние
почвы
00 11.12.17 260 (З) н/о    н/о 
-2.1 -3 94 -2  1002.1  -0.3  745  303           
03 11.12.17 тихо ()   н/о    н/о 
-2.8 -3.1 98 -3  1001.8  -0.3  745  304  -3         
06 11.12.17 тихо ()   20000 м    10/10 300 м 
[St]
-2.5 -4.3 87 -3  1002.3  0.6  746  304  -3      12  равномерный
мокрый или
старый снег
100% 
09 11.12.17 тихо ()   н/о    н/о 
-2 -4.5 83 -2  1003.5  0.6  746  303           
12 11.12.17 тихо ()   н/о    н/о 
-2.6 -4.8 85 -3  1003.9  0.4  747  304           
15 11.12.17 090 (В) н/о    н/о 
-3.1 -4.9 87 -3  1004.3  0.3  747  305           
18 11.12.17 тихо ()   4000 м  дымка  10/10 600 м 
[Sc]
-3.3 -4.7 90 -3  1006.2  1.9  748  306    -1.9       
21 11.12.17 120 (ЮВ) н/о    н/о 
-3.2 -4.2 93 -5  1005.9  -0.2  748  306           
00 12.12.17 110 (В) н/о    н/о 
-3 -3.5 96 -5  1006.5  0.6  749  305           
03 12.12.17 130 (ЮВ) н/о    н/о 
-2.2 -2.6 97 -4  1006.4  -0.1  749  304  -3.3         
06 12.12.17 130 (ЮВ) 4000 м  дымка  10/10 300 м 
[St]
-1.4 -2 96 -3  1004.5  -1.8  747  303  -3.3      12  равномерный
мокрый или
старый снег
100% 
09 12.12.17 140 (ЮВ) н/о    н/о 
-0.1 -0.8 95 -3  1002.5  -2  746  301           
12 12.12.17 140 (ЮВ) 5{11}  н/о    н/о 
+0.7 -0.1 94 -2  999.3  -3.1  743  299           
15 12.12.17 150 (ЮВ) 6-11{13}  н/о    н/о 
+1 +0.4 96 -2  996.5  -2.8  741  298           
18 12.12.17 170 (Ю) 5{12}  4000 м  слаб. дождь  10/10 600 м 
[Ns]
+1.8 +1.1 95 -1  996.4  0.1  741  297    +1.8     
21 12.12.17 160 (Ю) н/о    н/о 
+2.5 +1.9 96 997  0.6  742  296           
00 13.12.17 170 (Ю) н/о    н/о 
+3 +2.2 94 +2  996.5  -0.5  741  295           
03 13.12.17 200 (Ю) 6-10{10}  н/о    н/о 
+4.2 +0.3 76 +2  996.5  0.1  741  294  +1.1         
06 13.12.17 230 (ЮЗ) 5-11{14}  20000 м    9/9 600 м 
[Frnb]
+3.7 -1 71 +1  998.8  2.2  743  296  +1.8    0.0  равномерный
мокрый или
старый снег
100% 
09 13.12.17 240 (ЮЗ) 3{13}  н/о    н/о 
+2.3 -1.1 78 +1  1003.6  4.7  747  298           
12 13.12.17 230 (ЮЗ) н/о    н/о 
+1.2 -1.4 83 1006.2  2.6  749  300           
15 13.12.17 210 (ЮЗ) н/о    н/о 
+0.1 -2.2 84 -2  1008.2  1.9  750  302           
18 13.12.17 180 (Ю) 20000 м    10/10 600 м 
[Sc]
-0.1 -3 81 -1  1008.8  0.6  750  303    +3.7  0.0     
21 13.12.17 170 (Ю) н/о    н/о 
+0.2 -1.5 88 -2  1009.1  0.3  751  302           
00 14.12.17 160 (Ю) н/о    н/о 
+0.4 -1.1 90 1009.1  751  302           
Время (UTC), дата Ветер
(°,м/с) 
Видим.   Явления Облачность Т
(°С)
Тd
(°С)
f(%) Тe
(°С)
Pmin
(гПа)
dP
(гПа)
Po
(мм)
O2
(г/м3)
Тmin Tmax R s Состояние
почвы

Для получения пояснительной информации подведите курсор к названию столбца.

ПОГОДА Дно - архив

Всё, что Вы хотите узнать о погоде Дно - удобно и подробно!

Выберите нужную дату (начиная с 1 января 2015* года) и нажмите кнопку "Найти".
Будут отображены архивные сводки погоды по пункту Дно, начиная с указанной даты.


Отображать данные в формате CSV (для использования в таблицах Excel)


Внимание! Наш архив погоды предназначен исключительно для личного некоммерческого использования в познавательных целях. Если Вам необходимы официальные справки о состоянии погоды (для производственных, юридических, коммерческих и т.п. целей), обращайтесь в органы Росгидромета.

*Примечание: данная дата относится к архиву по метеостанциям СССР (Россия, СНГ, Балтия).
Архив по метеостанциям Зарубежной Европы и Азии (кроме Китая) хранится 10 дней, по другим регионам земного шара (Китай, Африка, Америка, Австралия, Океания) - 1 день.

Дно - район местоположения метеостанции


Название, широта, долгота, высота метеостанции:
Дно 57.8°ш. 29.9°д. 71 м над ур. моря [Российская Федерация]

Дополнительная информация

В oтличие oт бoльшинства пoгoдных сайтoв мы публикуем пoдрoбную метеoинфoрмацию в детальнoм прoфессиoнальнoм фoрмате.

Характеристики температуры и влажнoсти вoздуха измеряются на высoте 2 м в тени вдали oт зданий и деревьев.
Скoрoсть ветра измеряется на высoте 10 м (на урoвне рoста челoвека скoрoсть ветра ниже в 1.5-2 раза). Если метеoстанция нахoдится в гoрoде или в лесу, тo скoрoсть ветра занижена на 2-4 м/с пo сравнению с oткрытым местoм. Скoрoсть ветра над акватoриями крупных рек и oзёр, а также на вершинах хoлмoв на 2-5 м/с выше, чем в oбычных услoвиях.
Атмoсфернoе давление в разных тoчках местнoсти мoжет значительнo oтличаться oт давления на метеoстанции, в зависимoсти oт услoвий рельефа (при пoдъёме на 10 м давление пoнижается примернo на 1 мм рт.ст.).